Heraklion, Greece

3:52 AM EEST on May 23, 2017 (GMT +0300)
Nikos Kazantzakis

Weather History for LGIR - January, 2013

Change the Weather History Date:

Friday, January 18, 2013

  Actual Average Record
Temperature  
Mean Temperature 58 °F -  
Max Temperature 64 °F 60 °F 65 °F (2017)
Min Temperature 51 °F 48 °F 43 °F (2015)
Degree Days  
Heating Degree Days 8    
Growing Degree Days 8 (Base 50)    
Moisture  
Dew Point 46 °F    
Average Humidity 64    
Maximum Humidity 88    
Minimum Humidity 42    
Precipitation  
Precipitation 0.20 in 0.11 in - ()
Sea Level Pressure  
Sea Level Pressure 29.71 in    
Wind  
Wind Speed 12 mph ()    
Max Wind Speed 25 mph    
Max Gust Speed 38 mph    
Visibility 6.2 miles    
Events Rain    
Averages and records for this station are not official NWS values.
T = Trace of Precipitation, MM = Missing Value Source: Averaged Metar Reports

Daily Weather History Graph

Daily Weather History Graph

Search for Another Location

Airport or City:

Trip Planner

Search our weather history database for the weather conditions in past years. The results will help you decide how hot, cold, wet, or windy it might be!

Date:

Astronomy

Jan. 18, 2013 Rise Set
Actual Time 7:26 AM EET 5:33 PM EET
Civil Twilight 6:59 AM EET 6:00 PM EET
Nautical Twilight 6:28 AM EET 6:31 PM EET
Astronomical Twilight 5:57 AM EET 7:02 PM EET
Moon 11:12 AM EET (1/18) No Moon Set
Length of Visible Light 11h 01m
Length of Day
10h 06m
Waxing Crescent, 44% of the Moon is Illuminated
Jan 18
Waxing Crescent
Jan 19
First Quarter
Jan 27
Full
Feb 3
Last Quarter
Feb 10
New

Hourly Weather History & Observations

Time (EET) Temp. Dew Point Humidity Pressure Visibility Wind Dir Wind Speed Gust Speed Precip Events Conditions
12:20 AM 59.0 °F 46.4 °F 63% 29.83 in 6.2 mi South 13.8 mph - N/A   Mostly Cloudy
12:50 AM 59.0 °F 46.4 °F 63% 29.83 in 6.2 mi South 12.7 mph - N/A   Mostly Cloudy
1:20 AM 59.0 °F 46.4 °F 63% 29.83 in 6.2 mi SSE 8.1 mph - N/A   Mostly Cloudy
1:50 AM 57.2 °F 41.0 °F 55% 29.83 in 6.2 mi SSE 8.1 mph - N/A   Scattered Clouds
2:00 AM 58 °F 41 °F 42% 29.84 in 6 mi SSE 8.1 mph - -   Scattered Clouds
2:20 AM 57.2 °F 41.0 °F 55% 29.83 in 6.2 mi SSE 8.1 mph - N/A   Scattered Clouds
2:50 AM 57.2 °F 42.8 °F 59% 29.83 in 6.2 mi SE 8.1 mph - N/A   Scattered Clouds
3:20 AM 57.2 °F 42.8 °F 59% 29.83 in 6.2 mi ESE 5.8 mph - N/A   Scattered Clouds
3:50 AM 55.4 °F 42.8 °F 63% 29.80 in 6.2 mi South 12.7 mph - N/A   Scattered Clouds
4:50 AM 57.2 °F 46.4 °F 67% 29.77 in 6.2 mi South 5.8 mph - N/A   Mostly Cloudy
5:20 AM 57.2 °F 46.4 °F 67% 29.77 in 6.2 mi South 9.2 mph - N/A   Mostly Cloudy
5:50 AM 59.0 °F 42.8 °F 55% 29.77 in 6.2 mi South 18.4 mph - N/A   Mostly Cloudy
6:20 AM 59.0 °F 42.8 °F 55% 29.77 in 6.2 mi South 13.8 mph - N/A   Mostly Cloudy
6:50 AM 59.0 °F 42.8 °F 55% 29.71 in 6.2 mi South 16.1 mph - N/A   Mostly Cloudy
7:20 AM 59.0 °F 42.8 °F 55% 29.71 in 6.2 mi SSE 9.2 mph - N/A   Mostly Cloudy
7:50 AM 53.6 °F 44.6 °F 72% 29.77 in 6.2 mi West 12.7 mph - N/A   Scattered Clouds
8:00 AM 54 °F 45 °F 62% 29.78 in 6 mi West 12.7 mph - -   Scattered Clouds
8:20 AM 53.6 °F 44.6 °F 72% 29.77 in 6.2 mi South 13.8 mph - N/A   Scattered Clouds
8:50 AM 59.0 °F 44.6 °F 59% 29.74 in 6.2 mi South 9.2 mph - N/A   Scattered Clouds
9:20 AM 59.0 °F 44.6 °F 59% 29.74 in 6.2 mi South 9.2 mph - N/A   Scattered Clouds
9:50 AM 62.6 °F 46.4 °F 55% 29.74 in 6.2 mi South 21.9 mph - N/A   Scattered Clouds
10:20 AM 62.6 °F 46.4 °F 55% 29.74 in 6.2 mi South 21.9 mph - N/A   Scattered Clouds
10:50 AM 64.4 °F 46.4 °F 52% 29.74 in 6.2 mi South 12.7 mph - N/A   Scattered Clouds
11:20 AM 64.4 °F 46.4 °F 52% 29.74 in 6.2 mi South 16.1 mph - N/A   Scattered Clouds
11:50 AM 64.4 °F 46.4 °F 52% 29.71 in 6.2 mi South 21.9 mph 33.4 mph N/A   Scattered Clouds
12:20 PM 64.4 °F 46.4 °F 52% 29.71 in 6.2 mi South 21.9 mph - N/A   Scattered Clouds
12:50 PM 62.6 °F 44.6 °F 52% 29.65 in 6.2 mi South 25.3 mph - N/A   Scattered Clouds
1:20 PM 62.6 °F 44.6 °F 52% 29.65 in 6.2 mi South 25.3 mph 38.0 mph N/A   Mostly Cloudy
1:50 PM 62.6 °F 48.2 °F 59% 29.65 in 6.2 mi SSW 25.3 mph 36.8 mph N/A   Mostly Cloudy
2:00 PM 63 °F 49 °F 50% 29.68 in 6 mi SSW 25.3 mph - -   Partly Cloudy
2:20 PM 62.6 °F 48.2 °F 59% 29.65 in 6.2 mi SSW 23.0 mph 34.5 mph N/A   Mostly Cloudy
2:50 PM 62.6 °F 50.0 °F 63% 29.62 in 6.2 mi South 25.3 mph 36.8 mph N/A   Mostly Cloudy
3:20 PM 62.6 °F 50.0 °F 63% 29.62 in 6.2 mi South 23.0 mph 36.8 mph N/A Rain Light Rain
3:50 PM 59.0 °F 48.2 °F 67% 29.62 in 6.2 mi SSW 21.9 mph 33.4 mph N/A Rain Light Rain
4:20 PM 59.0 °F 48.2 °F 67% 29.62 in 6.2 mi SSW 19.6 mph 31.1 mph N/A Rain Light Rain
4:50 PM 57.2 °F 50.0 °F 77% 29.62 in 6.2 mi SW 17.3 mph 28.8 mph N/A Rain Light Rain
5:20 PM 57.2 °F 50.0 °F 77% 29.62 in 6.2 mi SSW 13.8 mph 25.3 mph N/A Rain Light Rain
5:50 PM 57.2 °F 50.0 °F 77% 29.62 in 6.2 mi SSW 18.4 mph - N/A Rain Light Rain
6:20 PM 57.2 °F 50.0 °F 77% 29.62 in 6.2 mi SSW 18.4 mph - N/A Rain Light Rain
6:50 PM 55.4 °F 46.4 °F 72% 29.62 in 6.2 mi West 11.5 mph - N/A   Mostly Cloudy
7:20 PM 55.4 °F 46.4 °F 72% 29.62 in 6.2 mi West 6.9 mph - N/A   Mostly Cloudy
7:50 PM 55.4 °F 44.6 °F 67% 29.62 in 6.2 mi South 13.8 mph - N/A   Scattered Clouds
8:00 PM 55 °F 44 °F 58% 29.65 in 6 mi South 13.8 mph - -   Partly Cloudy
8:20 PM 55.4 °F 44.6 °F 67% 29.62 in 6.2 mi South 13.8 mph - N/A   Scattered Clouds
8:50 PM 55.4 °F 44.6 °F 67% 29.68 in 6.2 mi West 11.5 mph - N/A Rain Light Rain
9:20 PM 51.8 °F 48.2 °F 88% 29.68 in 6.2 mi South 6.9 mph - N/A   Scattered Clouds
9:50 PM 53.6 °F 46.4 °F 77% 29.68 in 6.2 mi SSE 8.1 mph - N/A   Scattered Clouds
10:20 PM 53.6 °F 46.4 °F 77% 29.68 in 6.2 mi South 4.6 mph - N/A   Scattered Clouds
10:50 PM 51.8 °F 46.4 °F 82% 29.74 in 6.2 mi Variable 3.5 mph - N/A   Scattered Clouds
11:20 PM 51.8 °F 46.4 °F 82% 29.74 in 6.2 mi Variable 3.5 mph - N/A   Scattered Clouds
11:50 PM 51.8 °F 44.6 °F 76% 29.74 in 6.2 mi SW 3.5 mph - N/A Rain Light Rain